Location: CNYAC Observatory
(43.2150°N, 74.9500°W)
Time: 01:31:42
(UTC-05:00)

Cosmos 1975 Rocket - Visible Passes

Search period start: 11 February 2016 00:00
Search period end: 21 February 2016 00:00
Orbit: 605 x 634 km, 82.5° (Epoch: 10 February)

Date Brightness Start Highest point End Pass type
(mag) Time Alt. Az. Time Alt. Az. Time Alt. Az.
11 Feb 5.5 19:10:57 10° NNW 19:14:39 25° W 19:18:18 10° SW visible
12 Feb 6.2 06:06:23 10° SE 06:09:23 18° E 06:12:23 10° NE visible
12 Feb 3.2 17:50:04 10° N 17:54:30 54° E 17:58:52 10° SSE visible
12 Feb 6.4 19:29:29 10° NW 19:31:51 14° W 19:34:13 10° WSW visible
13 Feb 5.2 06:22:42 10° SSE 06:26:37 32° E 06:30:36 10° NNE visible
13 Feb 3.2 18:07:28 10° N 18:11:59 81° W 18:16:27 10° S visible
14 Feb 4.5 18:25:07 10° NNW 18:29:22 43° W 18:33:35 10° SSW visible
15 Feb 6.8 05:23:24 10° E 05:24:13 10° E 05:25:03 10° ENE visible
15 Feb 5.7 18:43:05 10° NW 18:46:40 24° W 18:50:13 10° SW visible
16 Feb 6.1 05:38:14 10° SE 05:41:23 19° E 05:44:34 10° NE visible
16 Feb 6.5 19:01:43 10° NW 19:03:51 13° W 19:05:59 10° WSW visible
17 Feb 5.0 05:54:38 10° SSE 05:58:38 34° E 06:02:41 10° NNE visible
18 Feb 3.6 06:11:36 10° S 06:15:59 65° E 06:20:25 10° NNE visible
18 Feb 4.8 17:57:11 10° NNW 18:01:24 40° W 18:05:33 10° SSW visible
19 Feb 6.7 04:54:51 10° E 04:56:13 11° E 04:57:36 10° ENE visible
19 Feb 6.0 18:15:12 10° NW 18:18:41 22° W 18:22:07 10° SW visible
20 Feb 5.9 05:10:06 10° SE 05:13:23 21° E 05:16:42 10° NE visible
20 Feb 6.6 18:34:00 10° WNW 18:35:51 12° W 18:37:42 10° WSW visible
